Vorticity
15 -13 12 9 3 11 9 7 0 15 33 14 3 6 4 5 4 5 7 6 11 10 5 4 3 4 6 10 5 4 3 4 3 4 4 5 3 3 3 4 4 4 4
9 22 9 19 7 7 22 16 1 8 2 1 2 4 2 4 2 -1 -2 -2 -5 -7 7 8 4 3 4 5 10 9 4 4 4 2 2 4 4 4 3 1 3 4 4
11 14 1 -7 16 6 29 41 20 14 10 3 3 6 3 2 2 2 3 6 8 8 6 8 2 3 7 3 4 8 10 5 4 4 4 4 3 4 5 3 3 3 3
7 21 -20 36 -6 4 17 -12 4 -2 6 0 -0 1 3 2 3 5 6 8 7 7 8 7 5 8 6 4 4 4 5 8 11 7 4 3 2 2 -1 4 4 3 2
14 -10 21 6 -22 6 -8 22 0 17 8 11 -3 1 3 3 5 8 8 8 8 8 8 8 7 7 5 6 8 6 4 4 4 7 13 9 5 3 2 3 0 3 5
8 9 4 -1 4 11 -2 1 -2 -9 -7 -1 2 2 3 6 9 8 8 6 5 4 4 4 4 4 5 5 6 7 7 7 6 4 3 6 10 12 6 3 2 2 4
23 -4 -4 21 19 -0 -3 2 2 2 2 2 3 5 8 9 8 7 5 3 3 3 3 3 3 3 3 3 3 3 4 4 6 7 7 6 4 3 9 14 9 5 1
-8 15 3 4 4 1 2 2 2 3 5 6 9 8 8 7 6 4 3 3 3 3 3 3 3 3 3 3 3 3 3 3 3 4 4 5 5 6 6 4 6 11 11
20 2 3 8 3 3 2 2 3 4 5 8 8 8 7 5 4 4 3 3 3 3 3 4 4 5 5 5 5 5 4 4 4 4 3 4 3 3 3 4 6 5 3
-11 -15 -13 1 3 3 2 2 3 3 4 6 5 5 4 4 4 4 4 4 4 4 5 5 6 6 6 7 7 7 7 7 7 7 6 6 5 4 3 3 4 4 6
8 8 6 4 3 2 2 3 3 3 4 4 4 4 4 4 4 4 4 4 5 6 6 7 6 6 5 5 5 5 5 5 5 5 5 5 6 7 7 7 5 4 3
11 8 6 7 5 4 3 4 3 3 4 4 4 4 4 4 4 4 5 5 6 6 6 5 6 6 6 6 5 5 5 4 5 5 6 6 5 5 5 5 5 5 6
6 2 3 9 7 1 4 4 3 3 4 3 5 5 5 4 4 5 5 6 6 5 5 6 5 4 4 5 6 5 6 7 6 5 5 7 7 7 7 7 6 5 5
12 6 8 11 5 10 6 4 3 3 3 3 6 6 5 4 5 6 6 6 5 6 6 5 3 4 7 6 5 5 5 5 6 6 6 6 6 6 7 6 7 7 8
7 8 10 12 8 4 1 5 5 5 4 6 8 6 5 5 5 6 6 6 6 6 5 4 5 6 6 5 6 5 6 7 8 7 6 5 5 5 5 5 4 4 6
7 7 10 11 9 5 2 4 5 6 4 6 6 5 5 5 5 6 5 6 7 5 4 4 5 5 6 4 6 6 7 7 5 5 5 6 6 6 6 7 7 6 5
6 5 7 7 9 7 6 7 5 5 5 5 6 5 5 5 6 7 7 7 6 5 4 4 6 6 5 6 5 5 5 5 5 6 6 7 6 6 7 7 6 6 5
4 6 6 6 7 7 6 4 4 5 5 5 5 5 6 6 7 7 7 7 6 5 3 4 5 6 5 6 6 6 5 5 6 7 7 8 7 7 7 7 7 7 7
5 5 4 6 6 6 6 6 4 5 5 5 5 5 6 7 7 6 7 6 4 4 3 4 4 4 5 6 6 6 6 5 6 7 7 7 7 7 7 7 7 7 7
8 7 5 4 5 6 6 5 4 5 6 5 5 6 6 7 6 5 6 6 5 6 5 5 5 4 4 5 7 7 7 7 7 8 8 7 7 6 6 7 7 6 7
7 8 9 6 5 5 6 9 7 6 6 5 5 5 6 7 6 5 6 6 6 6 5 5 4 4 5 7 8 8 8 8 8 7 8 8 7 7 7 7 7 7 8
7 7 7 8 6 6 6 6 5 4 5 4 5 6 8 7 6 6 6 6 7 7 5 4 4 4 4 6 8 7 7 7 7 7 7 7 6 7 8 9 9 9 8
5 5 9 10 7 7 8 6 5 5 6 7 8 8 8 7 6 6 6 7 8 7 6 5 4 4 5 6 9 8 10 7 7 6 7 8 8 9 9 10 9 9 8
12 8 8 13 11 7 7 9 8 7 7 7 6 5 6 6 6 6 7 7 8 7 6 5 5 4 5 6 9 8 8 7 7 7 5 6 7 7 7 8 8 9 9
18 17 15 14 14 11 10 10 10 9 8 7 7 8 8 7 6 6 7 8 8 7 6 4 5 5 5 7 7 7 7 8 9 10 9 11 9 11 10 11 11 11 13
14 11 11 11 10 10 9 9 11 10 9 10 9 8 7 7 6 7 8 8 7 7 6 5 5 5 6 6 8 9 9 8 8 7 8 7 8 9 9 11 12 14 15
Height
3128 3128 3128 3129 3129 3130 3131 3131 3132 3131 3131 3130 3134 3140 3141 3141 3142 3143 3142 3142 3142 3142 3141 3140 3139 3139 3139 3139 3139 3139 3139 3141 3141 3142 3143 3144 3144 3144 3145 3145 3146 3146 3146
3126 3126 3126 3127 3128 3128 3128 3129 3130 3131 3131 3132 3135 3137 3140 3141 3141 3142 3143 3143 3142 3142 3141 3141 3140 3140 3140 3140 3140 3140 3141 3142 3142 3142 3143 3144 3145 3145 3146 3146 3146 3146 3147
3124 3124 3126 3126 3127 3127 3127 3120 3125 3128 3130 3126 3130 3138 3140 3141 3142 3142 3142 3142 3142 3142 3142 3141 3141 3141 3141 3141 3141 3141 3142 3142 3142 3142 3143 3143 3144 3145 3146 3146 3146 3147 3147
3120 3122 3123 3120 3123 3120 3123 3115 3125 3127 3131 3132 3136 3138 3140 3141 3141 3142 3142 3142 3142 3142 3142 3141 3141 3141 3142 3142 3142 3142 3143 3142 3141 3142 3142 3142 3144 3144 3145 3145 3146 3146 3147
3119 3121 3122 3118 3123 3124 3123 3127 3128 3130 3130 3134 3137 3139 3140 3140 3141 3141 3141 3142 3142 3142 3142 3142 3142 3142 3141 3142 3142 3143 3142 3142 3142 3142 3143 3143 3144 3144 3144 3144 3144 3145 3145
3118 3119 3123 3121 3126 3127 3128 3130 3131 3133 3135 3137 3138 3139 3139 3139 3139 3140 3141 3141 3142 3142 3142 3142 3142 3142 3142 3142 3141 3142 3142 3142 3142 3143 3143 3143 3143 3141 3141 3142 3143 3143 3143
3117 3120 3122 3123 3123 3127 3126 3130 3132 3134 3136 3136 3137 3137 3138 3138 3139 3139 3140 3141 3142 3142 3142 3142 3142 3142 3141 3141 3142 3142 3142 3142 3142 3142 3142 3142 3141 3141 3142 3142 3142 3143 3143
3119 3119 3120 3123 3125 3127 3128 3129 3132 3133 3134 3135 3135 3136 3137 3137 3138 3139 3139 3140 3141 3140 3141 3141 3141 3141 3141 3141 3141 3141 3141 3141 3141 3141 3141 3141 3140 3139 3140 3141 3141 3141 3141
3120 3121 3120 3123 3125 3127 3128 3131 3131 3132 3133 3134 3134 3135 3136 3137 3137 3138 3138 3138 3138 3138 3139 3139 3139 3139 3139 3139 3138 3138 3139 3139 3139 3139 3139 3139 3139 3139 3138 3137 3138 3138 3138
3119 3120 3120 3122 3124 3126 3128 3130 3131 3131 3132 3133 3133 3134 3134 3135 3135 3136 3137 3136 3136 3137 3137 3137 3137 3136 3136 3136 3136 3136 3136 3136 3137 3136 3136 3136 3137 3136 3135 3135 3135 3135 3136
3116 3118 3119 3120 3122 3124 3125 3127 3127 3129 3130 3130 3131 3131 3132 3132 3134 3134 3134 3133 3133 3133 3133 3134 3134 3134 3134 3133 3133 3133 3132 3133 3133 3133 3134 3133 3132 3132 3132 3132 3132 3132 3132
3114 3116 3117 3118 3119 3121 3122 3124 3126 3126 3127 3128 3129 3129 3129 3130 3130 3130 3130 3130 3130 3130 3130 3130 3131 3131 3131 3130 3130 3130 3129 3129 3128 3129 3129 3128 3128 3128 3127 3128 3128 3128 3128
3110 3111 3112 3114 3117 3119 3120 3122 3122 3123 3125 3126 3127 3127 3127 3126 3126 3126 3127 3126 3126 3127 3127 3127 3127 3127 3127 3127 3125 3125 3125 3125 3125 3124 3124 3124 3124 3123 3123 3123 3123 3123 3123
3107 3108 3109 3110 3112 3113 3115 3117 3119 3120 3121 3122 3122 3122 3123 3122 3122 3123 3123 3122 3122 3123 3123 3123 3123 3124 3123 3122 3122 3122 3121 3121 3121 3119 3119 3119 3118 3118 3117 3117 3117 3117 3117
3102 3103 3104 3106 3108 3109 3110 3112 3114 3115 3116 3117 3118 3118 3117 3118 3118 3118 3118 3119 3118 3118 3119 3119 3119 3119 3118 3118 3118 3118 3117 3116 3115 3114 3114 3114 3113 3113 3111 3111 3109 3108 3109
3098 3100 3102 3104 3104 3105 3107 3108 3109 3110 3111 3111 3112 3113 3114 3113 3113 3114 3114 3114 3114 3114 3114 3114 3114 3113 3114 3114 3113 3113 3112 3111 3110 3109 3108 3107 3107 3107 3106 3105 3103 3102 3101
3093 3094 3096 3097 3099 3101 3102 3103 3104 3105 3105 3107 3109 3108 3108 3109 3110 3110 3111 3110 3109 3109 3109 3110 3110 3110 3110 3110 3109 3108 3107 3106 3104 3103 3102 3101 3099 3099 3098 3098 3096 3095 3093
3087 3089 3090 3091 3093 3095 3096 3097 3099 3099 3101 3101 3102 3102 3103 3104 3104 3105 3105 3105 3104 3104 3104 3105 3106 3105 3106 3106 3104 3103 3101 3100 3099 3098 3096 3095 3094 3092 3091 3090 3089 3087 3086
3081 3082 3084 3085 3087 3089 3090 3091 3092 3094 3095 3096 3096 3096 3097 3098 3098 3098 3099 3097 3096 3097 3098 3099 3100 3100 3101 3099 3097 3095 3095 3093 3093 3091 3089 3088 3086 3084 3083 3081 3080 3078 3076
3073 3074 3075 3077 3079 3081 3082 3084 3085 3086 3088 3089 3090 3090 3092 3092 3093 3092 3092 3092 3092 3092 3093 3093 3093 3094 3094 3093 3091 3089 3088 3087 3086 3083 3082 3081 3078 3076 3074 3072 3071 3069 3067
3064 3065 3067 3069 3071 3073 3075 3077 3079 3080 3081 3082 3083 3084 3085 3086 3086 3087 3087 3086 3086 3087 3088 3088 3087 3087 3087 3087 3086 3082 3079 3079 3077 3076 3074 3072 3070 3068 3065 3062 3059 3057 3056
3056 3057 3058 3060 3061 3064 3067 3069 3070 3072 3074 3074 3076 3078 3079 3080 3080 3080 3080 3081 3081 3081 3081 3081 3081 3079 3078 3078 3077 3076 3072 3072 3070 3067 3066 3064 3061 3058 3054 3052 3049 3046 3043
3046 3049 3050 3052 3054 3056 3058 3060 3061 3064 3066 3069 3070 3072 3072 3073 3073 3074 3074 3074 3074 3074 3074 3073 3072 3071 3069 3069 3068 3067 3064 3062 3060 3060 3058 3056 3053 3050 3046 3043 3040 3036 3032
3037 3038 3041 3043 3045 3046 3048 3051 3054 3058 3059 3061 3062 3063 3064 3065 3066 3066 3066 3067 3067 3066 3066 3066 3064 3062 3060 3059 3060 3058 3056 3052 3048 3044 3049 3046 3041 3039 3036 3032 3028 3024 3019
3025 3028 3030 3033 3035 3037 3039 3042 3046 3049 3051 3052 3054 3056 3057 3057 3058 3058 3059 3059 3059 3058 3058 3057 3056 3055 3053 3051 3048 3046 3044 3040 3037 3032 3026 3038 3034 3029 3025 3022 3019 3013 3008
3015 3016 3018 3021 3024 3027 3030 3033 3037 3039 3041 3044 3046 3047 3048 3049 3051 3051 3050 3050 3050 3049 3048 3047 3047 3046 3045 3041 3038 3035 3032 3030 3026 3019 3012 3009 3008 3017 3017 3014 3008 3004 2998